Regional Weather Roundup
Issued by NWS Grand Forks, ND

Home | Current Version | Previous Version | Text Only | Print | Product List | Glossary On
Versions: 1 2 3 4 5 6 7 8 9 10 11 12 13 14 15 16 17 18 19 20 21 22 23 24 25 26 27 28 29 30 31 32 33 34 35 36 37 38 39 40 41 42 43 44 45 46 47 48 49 50
000
ASUS43 KFGF 240710
RWRFGF
PRAIRIE TO PINES  WEATHER ROUNDUP
NATIONAL WEATHER SERVICE EASTERN NORTH DAKOTA/GRAND FORKS ND
200 AM CDT MON JUL 24 2017

 **SATELLITE DATA USED TO AUGMENT SKY COVER AT AUTOMATED STATIONS**
 *****  WEATHER ACROSS EASTERN NORTH DAKOTA  *****

CITY           SKY/WX    TMP DP  RH WIND       PRES   REMARKS
GRAND FORKS    FAIR      62  61  96 S5        29.97S
GRAND FRKS AFB FAIR      60  58  96 S3        29.97F
DEVILS LAKE    FAIR      66  63  90 SE12      29.96F
WAHPETON ARPT  FAIR      59  55  88 CALM      30.00F
$$

 ***** WEATHER ACROSS CENTRAL AND WESTERN NORTH DAKOTA  *****

CITY           SKY/WX    TMP DP  RH WIND       PRES   REMARKS
BISMARCK       FAIR      67  59  75 SE12      29.94F
MINOT          FAIR      66  58  75 SE6       29.88F
JAMESTOWN      FAIR      62  59  90 S6        29.97F
MINOT AFB      FAIR      63  59  86 S8        29.86F
GARRISON         N/A     63  57  81 SE8       29.91F
WILLISTON      FAIR      76  55  48 VRB5      29.82F
DICKINSON      FAIR      68  55  63 SE15      29.90F
HETTINGER      FAIR      69  52  54 SE13      29.96S
$$

 *****  OTHER AIRPORT OBSERVATIONS IN OUR AREA  *****

CITY           SKY/WX    TMP DP  RH WIND       PRES   REMARKS
WALHALLA       NOT AVBL
GRAFTON AIRPOR FAIR      59  59 100 S8        29.98S
VALLEY CITY AR PTSUNNY   61  63 100 S7        30.00S
CANDO          NOT AVBL
CAVALIER APRT  FAIR      63  61  94 S5        29.95S
GWINNER        SUNNY     57  57 100 CALM      29.99F
SHEYENNE NWR     N/A     57  57 100 CALM      29.95S
ROLLA            N/A     61  61 100 S7        29.93F
 ***** THE ABOVE OBSERVATIONS ARE NON NWS ARE NOT QUALITY
       CONTROLLED AND MAY MIS-REPORT RAIN FOR SNOW...
$$

  *****  WEATHER ACROSS NORTHERN MINNESOTA  *****

CITY           SKY/WX    TMP DP  RH WIND       PRES   REMARKS
FLAG ISLAND    FAIR      68  63  83 CALM      29.98R HAZE
WARROAD        FAIR      61  57  88 CALM      30.00S
ROSEAU         FAIR      59  54  82 S5        29.99S
HALLOCK        FAIR      61  59  94 S5        29.96F
THF RVR FALLS  FAIR      60  58  92 S5        30.01F
BAUDETTE       FAIR      59  56  89 S5        30.01R
WASKISH        FAIR      55  55 100 CALM      30.03S
CROOKSTON      FAIR      61  59  94 S6        30.00S
STEPHEN NDAWN    N/A     61  59  94 SE3         N/A
GREENBUSH NDAW   N/A     61  57  88 S3          N/A
$$
  *****  WEATHER ACROSS CENTRAL AND WEST MINNESOTA  *****

CITY           SKY/WX    TMP DP  RH WIND       PRES   REMARKS
FOSSTON        FAIR      55  54  94 CALM      30.03S
BEMIDJI        FAIR      54  52  93 CALM      30.04R
PARK RAPIDS    FAIR      61  56  83 SE7       30.04S
ELBOW LAKE     FAIR      64  61  88 SE5       30.03S
WADENA         CLOUDY    61  59  94 CALM      30.04S
DETROIT LAKES  FAIR      63  59  88 S5        30.04S
MOORHEAD       FAIR      63  61  94 SE5       30.00F
FERGUS FALLS   FAIR      66  61  82 SE3       30.01F
MORRIS MN      FAIR      63  61  94 SE7       30.02S
STAPLES        FAIR      57  57 100 CALM      30.05S
$$
  *****  WEATHER ELSEWHERE ACROSS MINNESOTA  *****

CITY           SKY/WX    TMP DP  RH WIND       PRES   REMARKS
DULUTH         FOG       54  54 100 CALM      30.06R VSB 1/4
INTRNTL FALLS  FAIR      52  49  89 S5        30.03R
ELY            FAIR      50  48  93 CALM      30.06S
CLOQUET        CLOUDY    55  54  94 CALM      30.06R FOG
WHEATON        FAIR      57  54  88 CALM      30.03S
BRAINERD       FOG       55  55 100 CALM      30.05S VSB 1/4
HIBBING        FOG       48  48 100 CALM      30.06S VSB 1/4
ALEXANDRIA     MOCLDY    62  59  90 SE6       30.05S
SAINT CLOUD    FAIR      55  55 100 CALM      30.04S FOG
MINNEAPOLIS    FAIR      63  56  78 CALM      30.04R
$$

  *****  WEATHER ACROSS SOUTH DAKOTA  *****

CITY           SKY/WX    TMP DP  RH WIND       PRES   REMARKS
SIOUX FALLS    FAIR      61  59  93 E3        30.03S
BROOKINGS      FAIR      61  58  90 SE5       30.04S
WATERTOWN      FAIR      60  58  92 SE3       30.02S
HURON          FAIR      64  61  90 SE10      30.00R
SISSETON         N/A     58  56  93 S3        30.00F
ABERDEEN       FAIR      60  59  96 SE7       29.99F
MITCHELL       FAIR      64  60  87 S8        30.02R
PIERRE         FAIR      68  58  70 SE10      29.97S
MOBRIDGE       FAIR      68  61  78 SE13      29.94S
RAPID CITY     FAIR      69  51  52 SE8       29.95F
$$

  *****  SOME WEATHER IN NEARBY STATES *****

CITY           SKY/WX    TMP DP  RH WIND       PRES   REMARKS
GLASGOW MT     FAIR      72  42  34 E12       29.71F
GREAT FALLS MT FAIR      72  37  28 S10       29.82S
CHEYENNE WY    FAIR      68  50  52 S12G20    30.16S
SCOTTSBLUFF NE FAIR      79  50  36 S10       30.00S
OMAHA NE       FAIR      70  59  68 CALM      30.01S
DES MOINES IA  FAIR      68  61  78 NW7       29.98S
DAVENPORT IA   FAIR      63  61  93 NW5       29.95S
CHICAGO IL     MOCLDY    69  61  75 NE15      29.91R
EAU CLAIRE WI  FAIR      59  56  89 NE3       30.01R
LA CROSSE WI   CLOUDY    66  61  84 N7        29.99S
$$

  *****  SOME NATIONAL WEATHER *****

CITY           SKY/WX    TMP DP  RH WIND       PRES   REMARKS
LA GUARDIA NY  CLOUDY    72  69  90 NE12      29.80F
RALEIGH NC     FAIR      71  69  93 W5        29.88R
ATLANTA GA     CLOUDY    78  74  87 S6        29.95R
NEW ORLEANS LA FAIR      78  74  87 CALM      29.98S
OKLAHOMA CITY  MOCLDY    73  67  81 S12       29.98S
ALBUQUERQUE NM MOCLDY    71  59  65 SE5       30.19F
SALT LAKE CITY FAIR      81  47  30 S7        30.00S
LOS ANGELES CA FAIR      67  63  87 SW6       29.90F
BOISE ID       FAIR      77  40  26 CALM      29.87S
SEATTLE WA     FAIR      65  54  67 NE12      30.03S
$$

*** WEATHER ACROSS MANITOBA...SASKATCHEWAN AND ONTARIO ***
                ***ONTARIO***

CITY           SKY/WX    TMP DP  RH WIND       PRES   REMARKS
GERALDTON      PTCLDY    50  48  93 CALM      30.02S
THUNDER BAY    PTCLDY    50  50 100 SW5       30.03R
SIOUX LOOKOUT  PTCLDY    54  52  94 S2        29.99S
TORONTO        CLOUDY    68  57  68 E5        29.72F
BIG TROUT LK   MOCLDY    63  54  72 S5        29.88S
PICKLE LAKE    NOT AVBL
DRYDEN         CLEAR     63  57  82 S7        30.00R
KENORA         CLEAR     64  61  88 S6        29.99S
$$
                *** MANITOBA***

CITY           SKY/WX    TMP DP  RH WIND       PRES   REMARKS
BRANDON        PTCLDY    59  57  94 E2        29.88F
DAUPHIN        MOCLDY    70  59  68 SW3       29.84F
ISLAND LAKE    NOT AVBL
PILOT MOUND      N/A     61  59  94 S10         N/A
THE PAS        PTCLDY    63  59  88 SE5       29.77F
THOMPSON       PTCLDY    52  52 100 CALM      29.77F
WINNIPEG       CLEAR     64  61  88 S9        29.92F
LYNN LAKE      CLEAR     55  55 100 S3        29.77S
CHURCHILL      MOCLDY    57  54  88 NE13      29.76R
GILLAM         LGT RAIN  59  59 100 SE6       29.77F
$$
                ***SASKATCHEWAN***

CITY           SKY/WX    TMP DP  RH WIND       PRES   REMARKS
ESTEVAN        PTCLDY    68  54  60 SE7       29.81F
KINDERSLEY     MOCLDY    70  55  60 SE13      29.57F
LLOYDMINSTER   CLOUDY    59  59 100 N16       29.70F
PRINCE ALBERT  CLOUDY    66  63  88 E9        29.67F
REGINA         NOT AVBL
YORKTON        MOCLDY    68  59  73 SE13G20   29.79F
N. BATTLEFORD  MOCLDY    64  61  88 E15       29.58F
LA RONGE       CLOUDY    66  61  82 VRB2      29.71F
SASKATOON      TSTM      70  61  73 SE14G20   29.58F
SWIFT CURRENT  CLEAR     70  50  49 SE13      29.64F
$$
NOTE: THESE ARE AUTOMATED STATIONS WITH LIMITED QUALITY CONTROL
      "FAIR" INDICATES FEW OR NO CLOUDS BELOW 12,000 FEET WITH NO
      SIGNIFICANT WEATHER AND/OR OBSTRUCTIONS TO VISIBILITY.
      SKY/WX - SKY CONDITION AND SIGNIFICANT WEATHER.
      TMP - AIR TEMPERATURE.    DP   - DEWPOINT TEMPERATURE.
      RH  - RELATIVE HUMIDITY.  PRES - PRESSURE.
      HX  - HEAT INDEX.         WCI  - WIND CHILL INDEX.
$




USA.gov is the U.S. government's official web portal to all federal, state and local government web resources and services.